Location: Demmingen
(48.6757°N, 10.4375°E)
Time: 04:43:50
(UTC+00:00)

CZ-2C R/B - Pass Details

Date: 15 August 2024
Orbit: 782 x 869 km, 98.3° (Epoch: 08 September)

Event Time Altitude Azimuth Distance (km) Brightness Sun altitude
Exits shadow 02:36:31 17° 256° (WSW) 2,015 4.1 -14.2°
Maximum altitude 02:37:40 18° 271° (W) 1,955 4.2 -14.0°
Drops below altitude 10° 02:41:18 10° 314° (NW) 2,447 5.0 -13.6°
Sets 02:44:27 0° 333° (NNW) 3,369 6.0 -13.2°
